星链-6235 (STARLINK-6235 )

导读

STARLINK-6235是美国太空探索技术公司(SpaceX)星链卫星互联网项目中的一颗低轨通信卫星,于2023年6月22日发射入轨。它运行在近地轨道,配备先进通信设备,属于星链星座组网的一部分,旨在为全球提供高速低延迟宽带互联网服务,尤其为偏远地区提供网络接入,助力缩小数字鸿沟,推动全球互联。

基本信息
目录编号:
57094
目录名称:
STARLINK-6235
国际标识:
2023-088AY
轨道中心:
EARTH
卫星名称:
星链-6235
卫星全名:
星链-6235 (STARLINK-6235 )
卫星状态:
在轨 (已飞行1088 天)
发射日期:
2023-06-22 UTC
国别 :
美国 (US)
星等 :
--
轨道信息
数据来源 国际轨道数据
星历时间: 2026-06-14T08:35:28+0800
20小时前
查看轨道信息
半长轴: 6861.175km
偏心率: 0.0003669
轨道倾角: 43.006°
近地点辐角 294.687°
升交点赤经 272.067°
平近点角 65.360°
近地点: 480.52km
远地点: 485.556km
周期: 94.267分钟
每日圈数: 15.275838
详细信息
固有亮度:
5
最大亮度:
2.4
卫星平台:
Starlink v1.5
覆盖范围:
全球
运营商:
太空探索技术公司
运营商所在国:
美国
制造商(研发单位):
太空探索技术公司
制造商所在国:
美国
使用方式:
暂无
卫星简介
星链(Starlink)计划是由太空探索技术公司(SpaceX)提出的一个巨型低轨卫星互联网星座项目,计划在2019年至2024年间在太空搭建由约1.2万颗卫星组成的“星链”网络,其中1584颗将部署在地球上空550千米处的近地轨道,并从2020年开始工作。该卫星仍在工作。
2D轨道图
3D轨道图
轨道高度分析图
轨道倾角分析图
轨道综合分析图
查看轨道综合分析图